Weather in Kalganovka

Russia / Oryol Oblast     52°51′59″N   36°42′17″E
temp.,
°C
wind,
m/s
gust,
m/s
humid.,
%
clouds,
%
prec.,
mm/h
press.,
hPa
HPBL,
m
16 may, sun
sun1600:00+12ssw34920 0.0 101256
03:00+11ssw34920 0.0 101350
06:00+12s349018 0.0 101486
09:00+17s46745 0.0 1014412
12:00+21ssw46573 0.2 10141688
15:00+22sw4554100 0.2 10141825
18:00+22w126446 0.0 1013683
21:00+16ene337759 0.0 101325
17 may, mon
mon1700:00+14ene358024 0.0 101365
03:00+13ene41188100 0.8 1012197
06:00+14e5119352 0.2 1011254
09:00+19ese6117538 0.2 1011432
12:00+23ese712570 0.0 1009802
15:00+25ese714570 0.0 10081916
18:00+23se714625 0.0 1007729
21:00+19ese6157581 0.0 1007378
18 may, tue
tue1800:00+17se5138398 0.0 1007290
03:00+15se4118978 0.0 1006212
06:00+15se41093100 0.6 1007269
09:00+19sse61082100 0.6 1007660
12:00+22sse696398 0.0 10071036
15:00+21s61265100 0.2 10061908
18:00+18sse5107862 0.3 1006696
21:00+15sse4119136 0.8 1007316
19 may, wed
wed1900:00+14se379490 0.0 1006152
03:00+13se3895100 0.0 1005152
06:00+14se3893100 0.0 1005253
09:00+17sse577936 0.0 1004692
12:00+18s5778100 1.3 1004836
15:00+17s578091 3.0 1004780
18:00+13ssw4892100 0.6 1005437
21:00+12s499144 0.9 1005432
20 may, thu
thu2000:00+9s4109775 0.0 1006335
03:00+10sse4896100 0.2 1005533
06:00+10sw61096100 0.6 1005634
09:00+10sw71194100 0.7 1007978
12:00+11sw8139098 0.2 1010905
15:00+15wsw8137588 0.6 10111459
18:00+15w6978100 0.6 1013998
21:00+11w1189100 0.7 101510